Regional Weather Roundup
Issued by NWS

Home | Current Version | Previous Version | Text Only | Print | Product List | Glossary Off
Versions: 1 2 3 4 5 6 7 8 9 10 11 12 13 14 15 16 17 18 19 20 21 22 23 24 25 26 27 28 29 30 31 32 33 34 35 36 37 38 39 40 41 42 43 44 45 46 47 48 49 50

000
ASUS43 KMKX 060621
RWRWI

WISCONSIN REGIONAL WEATHER ROUNDUP
NATIONAL WEATHER SERVICE MILWAUKEE/SULLIVAN WI
100 AM CDT MON JUL 06 2015

NOTE: "FAIR" INDICATES FEW OR NO CLOUDS BELOW 12,000 FEET WITH NO
SIGNIFICANT WEATHER AND/OR OBSTRUCTIONS TO VISIBILITY.

WIZ001-002-006>008-014>016-023>028-060700-
NORTHWEST WISCONSIN

CITY           SKY/WX    TMP DP  RH WIND       PRES   REMARKS
SUPERIOR ARPT  DRIZZLE   67  66  99 S5        29.84S
6HR MIN TEMP:  66; 6HR MAX TEMP:  82; 6HR PCP:  0.84;

ASHLAND        TSTM      67  67 100 SW8       29.87R VSB 3/4
6HR MIN TEMP:  67; 6HR MAX TEMP:  79; 6HR PCP:  0.29;

HAYWARD        TSTM      67  66  97 VRB7      29.91R FOG
6HR MIN TEMP:  70; 6HR MAX TEMP:  81; 6HR PCP:  0.07;

SIREN          HVY RAIN  68  65  89 N5G18     29.92R
6HR MIN TEMP:  68; 6HR MAX TEMP:  83; 6HR PCP:  0.13;

CUMBERLAND     TSTM      70  64  83 S5        29.88F
RICE LAKE      TSTM      71  66  83 SE3       29.91S
6HR MIN TEMP:  71; 6HR MAX TEMP:  81;

CHETEK         LGT RAIN  72  67  85 E3        29.89S
6HR MIN TEMP:  72; 6HR MAX TEMP:  80;

LADYSMITH      CLOUDY    71  65  81 S7        29.92S
6HR MIN TEMP:  71; 6HR MAX TEMP:  80;

EAU CLAIRE     PTCLDY    73  65  75 S3        29.88R
6HR MIN TEMP:  73; 6HR MAX TEMP:  81;

MENOMONIE      MOCLDY    74  66  77 SE5       29.88S
6HR MIN TEMP:  73; 6HR MAX TEMP:  82;

NEW RICHMOND   LGT RAIN  73  66  78 CALM      29.87R
6HR MIN TEMP:  73; 6HR MAX TEMP:  81;

OSCEOLA        HVY RAIN  72  72 100 E8        29.87F
6HR MIN TEMP:  72; 6HR MAX TEMP:  82; 6HR PCP:  0.26;

$$

WIZ003>005-009-010-017-018-060700-
NORTH CENTRAL WISCONSIN

CITY           SKY/WX    TMP DP  RH WIND       PRES   REMARKS
MANITOWISH WTR CLOUDY    69  65  86 S7        29.91R
6HR MIN TEMP:  69; 6HR MAX TEMP:  76;

ARBOR VITAE    CLOUDY    72  66  80 SW10      29.92R
6HR MIN TEMP:  72; 6HR MAX TEMP:  77;

WOODRUFF       CLOUDY    72  66  80 SW10      29.92R
6HR MIN TEMP:  72; 6HR MAX TEMP:  77;

RHINELANDER    MOCLDY    69  62  78 SW9       29.94R
6HR MIN TEMP:  69; 6HR MAX TEMP:  79;

EAGLE RIVER    CLOUDY    68  61  77 S3        29.92R
LAND O LAKES   CLOUDY    69  62  77 S6        29.91F
6HR MIN TEMP:  69; 6HR MAX TEMP:  78;

PHILLIPS       CLOUDY    69  64  83 S7        29.91R
6HR MIN TEMP:  69; 6HR MAX TEMP:  77;

TOMAHAWK       MOCLDY    66  62  87 CALM      29.94R
6HR MIN TEMP:  64; 6HR MAX TEMP:  77;

MEDFORD        CLOUDY    69  64  84 S9        29.94R
6HR MIN TEMP:  67; 6HR MAX TEMP:  78;

MERRILL        MOCLDY    69  65  86 SW6       29.95R
6HR MIN TEMP:  69; 6HR MAX TEMP:  79;

$$

WIZ029-030-035-036-043>047-060700-
CENTRAL WISCONSIN

CITY           SKY/WX    TMP DP  RH WIND       PRES   REMARKS
WAUSAU         PTCLDY    70  64  81 S8        29.93R
6HR MIN TEMP:  70; 6HR MAX TEMP:  80;

MOSINEE        PTCLDY    66  64  94 S6        29.96R
MARSHFIELD     PTCLDY    70  62  76 S9        29.94R
6HR MIN TEMP:  68; 6HR MAX TEMP:  80;

STEVENS POINT  CLEAR     68  63  83 S8        29.95R
6HR MIN TEMP:  68; 6HR MAX TEMP:  79;

WAUPACA        CLEAR     68  66  91 S3        29.95R
6HR MIN TEMP:  68; 6HR MAX TEMP:  82;

WAUTOMA        CLEAR     68  66  93 CALM      29.96R
6HR MIN TEMP:  68; 6HR MAX TEMP:  82;

WISC RAPIDS    CLEAR     69  62  78 S6        29.96R
6HR MIN TEMP:  69; 6HR MAX TEMP:  80;

CAMP DOUGLAS   CLEAR     71  71 100 VRB3      29.94R
6HR MIN TEMP:  70; 6HR MAX TEMP:  80;

$$

WIZ011>013-019>022-031-037>040-048>050-060700-
NORTHEAST WISCONSIN

CITY           SKY/WX    TMP DP  RH WIND       PRES   REMARKS
ANTIGO         PTCLDY    64  63  95 S6        29.95S
SHAWANO        PTCLDY    70  64  80 CALM      29.94R
6HR MIN TEMP:  70; 6HR MAX TEMP:  82;

OCONTO         CLEAR     68  65  91 S5        29.92F
6HR MIN TEMP:  68; 6HR MAX TEMP:  76;

STURGEON BAY   PTCLDY    64  57  77 S9        29.97S
6HR MIN TEMP:  64; 6HR MAX TEMP:  72;

GREEN BAY      CLEAR     67  62  84 S6        29.95R HAZE
6HR MIN TEMP:  67; 6HR MAX TEMP:  81;

MANITOWOC      CLEAR     63  60  90 MISG      29.97S
6HR MIN TEMP:  63; 6HR MAX TEMP:  72;

APPLETON       CLEAR     68  61  77 S8        29.96R
CLINTONVILLE   CLEAR     68  63  83 S5        29.94R
OSHKOSH        CLEAR     66  62  87 S8        29.95R
6HR MIN TEMP:  64; 6HR MAX TEMP:  79;

$$

WIZ032>034-041-042-053>061-060700-
SOUTHWEST WISCONSIN

CITY           SKY/WX    TMP DP  RH WIND       PRES   REMARKS
LA CROSSE      CLEAR     75  66  73 S14G24    29.90R
6HR MIN TEMP:  74; 6HR MAX TEMP:  82;

SPARTA         CLEAR     72  63  73 S8        29.93R
6HR MIN TEMP:  72; 6HR MAX TEMP:  81;

VIROQUA        CLEAR     69  65  88 S7        29.95R
6HR MIN TEMP:  69; 6HR MAX TEMP:  78;

BOSCOBEL       CLEAR     73  65  75 SW5       29.93S HAZE
6HR MIN TEMP:  73; 6HR MAX TEMP:  81;

PRAIRIE DU CHI CLEAR     73  64  73 SE3       29.91S
6HR MIN TEMP:  72; 6HR MAX TEMP:  81;

PLATTEVILLE    CLEAR     69  65  89 S8        29.95S
6HR MIN TEMP:  68; 6HR MAX TEMP:  77;

$$

WIZ056-057-062-063-064-067-068-060700-
SOUTH CENTRAL WISCONSIN

CITY           SKY/WX    TMP DP  RH WIND       PRES   REMARKS
REEDSBURG      PTCLDY    69  64  85 S7        29.94R
6HR MIN TEMP:  69; 6HR MAX TEMP:  79;

BARABOO/DELLS  CLEAR     67  62  82 SW6       29.95R
6HR MIN TEMP:  67; 6HR MAX TEMP:  79;

LONE ROCK      PTCLDY    72  64  76 S3        29.95R
6HR MIN TEMP:  68; 6HR MAX TEMP:  81;

MINERAL POINT  CLEAR     68  64  88 SE7       29.96S
MADISON        CLEAR     72  63  73 S9        29.95S
6HR MIN TEMP:  71; 6HR MAX TEMP:  80;

MIDDLETON      CLEAR     71  62  75 CALM      29.96S
6HR MIN TEMP:  71; 6HR MAX TEMP:  81;

WATERTOWN      CLEAR     66  66 100 CALM      29.96F
6HR MIN TEMP:  66; 6HR MAX TEMP:  78;

MONROE         CLEAR     66  63  88 S10       29.97S
JANESVILLE     CLEAR     66  63  88 S5        29.96F
$$

WIZ051-052-058>065-066-070>072-060700-
SOUTHEAST WISCONSIN

CITY           SKY/WX    TMP DP  RH WIND       PRES   REMARKS
MILWAUKEE      PTCLDY    68  59  73 S6        29.98S
6HR MIN TEMP:  67; 6HR MAX TEMP:  76;

WAUKESHA       CLEAR     64  59  82 CALM      30.00R
MILWAUKEE/TIMM CLEAR     66  57  72 S6        29.99R
RACINE         CLEAR     68  59  73 S6        29.99F
6HR MIN TEMP:  68; 6HR MAX TEMP:  74;

BURLINGTON     CLEAR     61  58  92 SW3       29.98R
6HR MIN TEMP:  59; 6HR MAX TEMP:  76;

KENOSHA        CLEAR     67  60  78 S6        29.98F
6HR MIN TEMP:  66; 6HR MAX TEMP:  76;

FOND DU LAC    CLEAR     68  62  81 S8        29.95S
6HR MIN TEMP:  67; 6HR MAX TEMP:  80;

SHEBOYGAN      CLEAR     63  59  87 S6        29.96S
6HR MIN TEMP:  63; 6HR MAX TEMP:  73;

WEST BEND      CLEAR     64  59  82 CALM      29.97F
JUNEAU         CLEAR     67  62  85 S9        29.97S
6HR MIN TEMP:  67; 6HR MAX TEMP:  78;

$$

LSZ147-162-060700-
LAKE SUPERIOR

STATION/POSITION TIME  TEMP    WIND        PRES    WAVE
                       AIR SEA DIR/SP/G            HT/PER
                 (UTC) (F)     (DEG/KT/KT) (MB)    (FT/S)
W MID LAKE BUOY  0550   57 39  300/  4/  6 1009.0R   0
DEVILS ISLAND    0600   64     220/ 10/ 12 1009.2F
PORT WING        0500   66     200/  6/ 13 1010.5R
SAXON HARBOR     0600   68     290/  9/ 20 1010.5
$$

LMZ867-665-643>646-060700-
LAKE MICHIGAN

STATION/POSITION TIME  TEMP    WIND        PRES    WAVE
                       AIR SEA DIR/SP/G            HT/PER



USA.gov is the U.S. government's official web portal to all federal, state and local government web resources and services.